www.pogodaiklimat.ru

Погода и климат >> Архив погоды >> Канада >> Timmins


ПОГОДА в Timmins

  • Прогноз погоды в Timmins
  • Монитор погоды в Timmins
  • Климат города

АРХИВ ПОГОДЫ в Timmins

Время (UTC), дата Ветер
(напр.,м/с)
 
Видим.   Явления Облачность Т
(С)
Тd
(С)
f
(%)
Тe
(С)
Тes
(С)
Комфортность P
(гПа)
Po
(гПа)
Тmin
(С)
Tmax
(С)
R
(мм)
R24
(мм)
S
(см)
06 17.06 ЮЗ 2 24 км {дождь} ясно +18.9 +16.0 83 +21 +21 комфорт 1012.0 977.1 +11.0 +30.2 11
09 17.06 Ю 2 24 км 10/10 1500 м
[]
+17.9 +16.4 91 +19 +19 1012.3 977.4
12 17.06 Ю 2 12 км слабый дождь 10/10 1000 м
[Sc diur, vesp]
+18.4 +17.9 97 +20 +20 1012.0 977.1 +15.7 +30.2
15 17.06 ЮЗ 3 24 км 10/10 1500 м
[]
+21.4 +18.9 86 +26 +26 душно 1011.6 976.6
18 17.06 Ю 3 24 км слабый ливневой дождь 10/5 1000 м
[Sc Ac As]
+22.9 +19.8 83 +30 +32 очень
душно
1009.4 974.5 +15.7 +22.9
21 17.06 З 2 12 км 10/10 600 м
[]
+22.1 +20.8 92 +28 +28 душно 1009.2 974.2
00 18.06 З 2 24 км в посл. час ливневой дождь 10/10 1500 м
[Sc]
+22.6 +21.1 91 +30 +30 очень
душно
1008.1 973.2 +15.7 +22.9
03 18.06 СЗ 2 24 км 9/9 1000 м
[]
+21.0 +19.9 93 +27 +27 душно 1008.2 973.3
06 18.06 С 1 24 км 10/10 600 м
[Sc]
+19.8 +19.5 98 +24 +24 комфорт 1007.8 972.9 +15.7 +22.9
09 18.06 С 3 3200 м 8/8 100 м
[]
+18.4 +17.9 97 +19 +19 1007.6 972.7
12 18.06 СЗ 2 16 км слабый дождь 10/10 100 м
[Sc]
+16.8 +16.1 96 +17 +17 1008.8 973.8 +16.5 +22.9
15 18.06 З 2 19 км 10/10 100 м
[]
+16.8 +15.6 93 +17 +17 1010.4 975.4
18 18.06 З 5 24 км {дождь} 9/3 600 м
[Cu med, cong Ac cuf Ci fib]
+21.8 +15.6 68 +25 +29 комфорт 1010.2 975.2 +16.5 +22.1
21 18.06 С 6 24 км 6/6 1500 м
[]
+24.3 +11.7 45 +26 +27 жарко 1010.8 975.8
00 19.06 С 6 24 км 3/3 1000 м
[Cu hum]
+18.7 +9.9 57 +19 +19 1013.9 978.7 +16.5 +24.8
03 19.06 СЗ 1 24 км ясно +9.6 +8.7 94 +9 +9 1017.1 981.5
06 19.06 З 2 24 км ясно +7.0 +6.7 98 +5 +5 1017.3 981.8 +6.8 +24.8 231
09 19.06 С 1 24 км ясно +4.7 +4.4 98 +4 +4 1017.9 982.4
12 19.06 СЗ 2 24 км 1/0
[Ci fib]
+14.5 +8.5 67 +14 +17 1019.4 983.9 +4.2 +24.8
15 19.06 СЗ 3 24 км 1/1 1500 м
[]
+19.6 +7.9 47 +21 +31 комфорт 1018.7 983.1
18 19.06 0 24 км 3/1 1500 м
[Cu hum Ci fib]
+23.3 +8.0 37 1016.6 981.1 +4.2 +23.4
21 19.06 ЮЗ 4 24 км 4/0
[]
+25.0 +7.2 32 +25 +31 комфорт 1014.5 979.1
00 20.06 З 3 24 км 5/0
[Ci fib]
+24.1 +7.2 34 +24 +25 комфорт 1012.2 977.2 +4.2 +26.3
03 20.06 ЮЗ 2 24 км 3/0
[]
+18.1 +8.9 55 +19 +19 1012.1 977.0
06 20.06 З 4 24 км 6/0 2000 м
[Ac As]
+18.0 +10.0 59 +18 +18 1011.5 976.5 +4.2 +26.3
09 20.06 З 2 24 км 9/0
[]
+15.7 +10.4 71 +16 +16 1011.1 976.1
12 20.06 С 6 24 км слабый ливневой дождь 10/10 100 м
[Frnb]
+12.5 +10.9 90 +10 +10 1012.4 977.3 +12.5 +26.3
15 20.06 С 5 24 км 10/10 200 м
[]
+9.8 +6.0 77 +7 +7 1014.7 979.2
18 20.06 С 4 24 км в посл. час ливневой дождь 6/6 600 м
[Sc]
+12.1 +7.0 71 +10 +16 1014.9 979.5 +8.7 +17.9
21 20.06 С 4 24 км 4/4 600 м
[]
+16.2 +4.6 46 +16 +20 1014.6 979.3
00 21.06 С 5 24 км ясно +13.8 +2.8 47 +12 +13 1015.3 979.8 +8.7 +16.3
03 21.06 С 2 24 км ясно +6.3 +2.7 78 +4 +4 1016.9 980.9
06 21.06 СВ 2 24 км ясно +3.7 +1.3 84 +1 +1 1018.2 982.2 +3.7 +17.9 22
09 21.06 ЮЗ 1 24 км ясно -0.5 -0.8 98 -3 -3 1018.5 982.5
12 21.06 ЮВ 2 24 км ясно +8.0 +2.1 66 +7 +10 1018.6 982.8 -1.2 +17.9
15 21.06 ЮВ 4 24 км ясно +14.1 +2.2 45 +13 +22 1018.4 982.5
18 21.06 С 1 24 км ясно +17.1 +1.4 35 +19 +41 опасность
простуды
1016.8 981.0 -1.2 +17.8
21 21.06 ЮЗ 2 24 км ясно +20.4 +4.3 35 +22 +31 комфорт 1015.6 979.7
00 22.06 Ю 2 24 км ясно +19.4 +5.6 40 +20 +21 1014.5 978.9 -1.2 +20.9
03 22.06 Ю 2 24 км ясно +12.8 +5.2 60 +12 +12 1014.7 979.1
06 22.06 Ю 2 24 км ясно +8.5 +5.2 80 +7 +7 1014.6 979.0 -1.2 +20.9
09 22.06 Ю 3 24 км 1/0
[]
+7.4 +4.9 84 +5 +5 1014.1 978.5
12 22.06 Ю 3 24 км ясно +13.7 +8.1 69 +13 +16 1014.0 978.6 +7.2 +20.9
15 22.06 ЮЗ 4 24 км 3/0
[]
+23.0 +7.7 37 +24 +32 комфорт 1014.0 978.7
18 22.06 ЮЗ 3 24 км 6/0 2000 м
[Ac und]
+26.7 +7.6 30 +27 +35 жарко 1012.7 977.4 +7.2 +26.8
21 22.06 З 2 24 км 6/0
[]
+26.3 +8.4 32 +26 +34 жарко 1011.7 976.4
00 23.06 Ю 2 24 км 5/0
[Ac As Ci fib]
+24.9 +12.4 46 +27 +27 жарко 1010.7 975.6 +7.2 +27.5
03 23.06 Ю 1 24 км 8/0 2000 м
[]
+17.3 +12.4 73 +18 +18 1010.7 975.7
06 23.06 С 1 24 км 3/0 2000 м
[Ac As]
+12.7 +11.1 90 +13 +13 1010.5 975.4 +7.2 +27.5 16
09 23.06 СВ 1 24 км 6/0 2000 м
[]
+11.0 +10.6 97 +11 +11 1009.7 974.6
12 23.06 Ю 1 24 км 6/0
[Ac und Ci]
+15.6 +12.2 80 +16 +19 1009.3 974.3 +9.9 +27.5
15 23.06 С 2 24 км 4/0 2000 м
[]
+21.4 +12.8 58 +24 +35 комфорт 1009.3 974.3
18 23.06 СВ 6 24 км 8/0 2000 м
[Ac und Ci]
+21.5 +10.7 50 +23 +28 комфорт 1009.6 974.4 +9.9 +23.0
21 23.06 С 6 24 км 3/0
[]
+17.8 +8.1 53 +17 +21 1010.2 974.8
00 24.06 С 5 24 км 10/0
[Ac trans]
+10.3 +5.6 73 +8 +8 1012.1 976.6 +9.9 +23.0
03 24.06 СВ 4 24 км 10/10 300 м
[]
+7.7 +6.5 92 +4 +4 1014.2 978.7

 

Местоположение метеостанции Timmins (Канада): широта 48.57 долгота -81.36 высота над уровнем моря 295 м.

В архиве по умолчанию представлена погода в Timmins за последнюю неделю. Архивные данные за месяц целиком и за предыдущие месяцы, начиная с января 2011 года, Вы можете получить, выбрав интересующий диапазон дат из раскрывающегося списка и нажав кнопку "Ввод!".


*Определитесь, кто Вы:
робот инопланетянин человек

Внимание! Время в таблицах - всемирное. Для получения местного времени необходимо прибавить поправку, которая в Timmins равна -5 ч.

Смотрите также архив погоды в соседних городах и на ближайших метеорологических станциях:

Погода в Timmins Climate (Канада) (3 км)
Погода в Kirkland Lake (Канада) (111 км)
Погода в Kapuskasing (Канада) (122 км)
Погода в Kapuskasing (Канада) (122 км)
Погода в Kapuskasing Airport (Канада) (124 км)
Погода в Earlton (Канада) (148 км)
Погода в Earlton Climate (Канада) (151 км)
Погода в Chapleau A (Канада) (169 км)
Погода в Rouyn (Канада) (176 км)
Погода в Barrage Angliers (Канада) (195 км)

Пояснения к столбцам:

Ветер - указаны скорость ветра в м/с - средняя за 10 мин, порывы в срок и между сроками (в фигурных скобках) и направление, откуда дует ветер: С - северный, СВ - северо-восточный, В - восточный, ЮВ - юго-восточный, Ю - южный, ЮЗ - юго-западный, З - западный, СЗ - северо-западный.
Видимость - горизонтальная дальность видимости в метрах или километрах. При видимости от 1 до 10 км при отсутствии осадков обычно наблюдается дымка, при ухудшении видимости до 1 км и менее - туман. В сухую погоду видимость может ухудшаться дымом, пылью или мглою.
Явления - указаны атмосферные явления, наблюдавшиеся в срок или в последний час перед сроком; фигурными скобками обозначены явления, наблюдавшиеся между сроками (за 1-3 часа до срока); квадратными скобками обозначены град или гололедные отложения с указанием их диаметра в мм.
Облачность - указаны через наклонную черту общая и нижняя облачность в баллах и высота нижней границы облаков в метрах; квадратными скобками обозначены формы облаков: Ci - перистые, Cs - перисто-слоистые, Cc - перисто-кучевые, Ac - высококучевые, As - высокослоистые, Sc - слоисто-кучевые, Ns - слоисто-дождевые, Cu - кучевые, Cb - кучево-дождевые. Подробнее классификацию облаков см. в Атласе облаков (PDF).
T - Температура воздуха - температура, измеренная на высоте 2 м над землей.
Td - Температура точки росы - температура, при понижении до которой содержащийся в воздухе водяной пар достигнет насыщения.
f - Относительная влажность воздуха - влажноcть воздуха, измеренная на высоте 2 м над землей.
Te - Эффективная температура - температура, которую ощущает одетый по сезону человек в тени. Характеристика душности погоды. При расчете учитывается влияние влажности воздуха и скорости ветра на теплоощущения человека.
Tes - Эффективная температура на солнце - температура, которую ощущает человек, с поправкой на солнечный нагрев. Характеристика знойности погоды. Зависит от высоты солнца над горизонтом, облачности и скорости ветра. Ночью, в пасмурную погоду, а также при ветре 12 м/с и более поправка равна нулю.
P - Атмосферное давление - приведенное к уровню моря атмосферное давление.
Po - Атмосферное давление - измеренное на уровне метеостанции атмосферное давление.
Tmin - Минимальная температура - минимум температуры воздуха на высоте 2 м над землей.
Tmax - Максимальная температура - максимум температуры воздуха на высоте 2 м над землей.
R - Количество осадков - Количество выпавших осадков за период времени, мм. При наведении курсора мыши на число - период времени, за который выпало указанное количество осадков.
R24 - Количество осадков - Количество выпавших осадков за 24 часа, мм.
S - Снежный покров - Высота снежного покрова, см. При наведении курсора мыши на число - состояние снежного покрова и степень покрытия местности в баллах.